Weather Roundup
Issued by NWS

Home | Current Version | Previous Version | Graphics & Text | Print | Product List | Glossary Off
Versions: 1 2 3 4 5 6 7 8 9 10 11 12 13 14 15 16 17 18 19 20 21 22 23 24 25 26 27 28 29 30 31 32 33 34 35 36 37 38 39 40 41 42 43 44 45 46 47 48 49 50

000
NZUS93 KARX 012259
HRRWXR

CURRENT HOURLY OBSERVATIONS ACROSS
MUCH OF THE UPPER MISSISSIPPI VALLEY
NATIONAL WEATHER SERVICE LA CROSSE WI
600 PM CDT TUE SEP 01 2015


...SOUTHEAST MINNESOTA...


CITY           SKY/WX    TMP DP  RH WIND       PRES   REMARKS
ROCHESTER      CLOUDY    80  73  79 S8        29.94S
ROCHESTER/MAYO FAIR      83  72  71 S7        29.93S
WINONA         PTSUNNY   86  72  62 SW5       29.91S HX  92
AUSTIN         PTSUNNY   82  73  74 S7        29.93S
ALBERT LEA     PTSUNNY   82  72  69 S7        29.92S
DODGE CENTER   PTSUNNY   81  73  78 SW7       29.94R
PRESTON        PTSUNNY   81  71  72 S5        29.95S
OWATONNA       PTSUNNY   82  72  69 S6        29.92R
FARIBAULT      PTSUNNY   82  73  74 S3        29.91R
$$

...ELSEWHERE IN MINNESOTA...


CITY           SKY/WX    TMP DP  RH WIND       PRES   REMARKS
MINNEAPOLIS    CLOUDY    86  73  65 VRB5      29.88S HX  93
INTNL FALLS    SUNNY     81  55  40 W3        29.89R
DULUTH         PTSUNNY   81  68  64 SW8       29.92R
RED WING       CLOUDY    88  72  58 S8        29.88R HX  94
REDWOOD FALLS  CLOUDY    83  73  72 E6        29.87R
MANKATO        PTSUNNY   81  72  74 S7        29.90S
WORTHINGTON    CLOUDY    79  70  73 S8        29.90S
FAIRMONT       CLOUDY    82  70  65 S8        29.90S
$$

...SOUTHWEST WISCONSIN...


CITY           SKY/WX    TMP DP  RH WIND       PRES   REMARKS
LA CROSSE      MOSUNNY   86  73  65 S7        29.91R HX  93
PRAIRIE DU CHI MOSUNNY   87  71  58 S6        29.93S HX  92
BOSCOBEL       MOSUNNY   89  74  60 SW6       29.94R HX  98
LONE ROCK      NOT AVBL
PLATTEVILLE    SUNNY     84  74  72 S12       29.97S HX  92
FORT MC COY    MOSUNNY   87  70  56 S3        29.93S HX  91
VIROQUA          N/A     83  72  70 SW8       29.96S
WIS DELLS      SUNNY     86  69  56 SW6       29.95S HX  90
$$

...ELSEWHERE IN WISCONSIN...


CITY           SKY/WX    TMP DP  RH WIND       PRES   REMARKS
MILWAUKEE      MOSUNNY   87  68  52 SW15      29.96S HX  90
MADISON        MOSUNNY   86  70  58 SW9       29.95S HX  90
GREEN BAY      MOSUNNY   84  71  65 S6        29.93S
EAU CLAIRE     NOT AVBL
BLACK RVR FLS  FAIR      87  68  52 SW7       29.92R HX  91
MEDFORD        PTSUNNY   80  72  75 SW3       29.95S
WAUSAU         PTSUNNY   84  71  65 SW7       29.93R
WIS RAPIDS     MOSUNNY   86  69  56 SW8       29.95R HX  90
MARSHFIELD     MOSUNNY   85  69  58 SW7       29.94S
RICE LAKE      CLOUDY    81  71  72 CALM      29.93S
$$

...NORTHEAST IOWA...


CITY           SKY/WX    TMP DP  RH WIND       PRES   REMARKS
DECORAH        MOSUNNY   82  73  74 VRB5      29.95R
MASON CITY     PTSUNNY   82  73  74 S9        29.95R
CHARLES CITY   PTSUNNY   84  77  79 SW10      29.95S HX  94
OELWEIN        MOSUNNY   82  75  78 S8G14     29.97S
$$

...ELSEWHERE IN IOWA...


CITY           SKY/WX    TMP DP  RH WIND       PRES   REMARKS
DES MOINES     PTSUNNY   88  70  55 S13       29.94S HX  93
IOWA CITY      SUNNY     87  72  60 S8        29.97F HX  93
FORT DODGE     PTSUNNY   82  72  69 S8        29.94S
$$

...NORTHERN ILLINOIS...


CITY           SKY/WX    TMP DP  RH WIND       PRES   REMARKS
CHICAGO-OHARE  MOSUNNY   86  72  62 SW12      29.99S HX  92
CHICAGO-MIDWAY MOSUNNY   88  71  57 SW16      30.00S HX  94
MOLINE         SUNNY     88  71  57 S6        29.97S HX  94
ROCKFORD       SUNNY     87  72  60 SW8       29.99S HX  93
PEORIA         SUNNY     92  66  42 W7        30.01S HX  94
$$

NOTE: "FAIR" INDICATES FEW OR NO CLOUDS BELOW 12,000 FEET WITH NO
SIGNIFICANT WEATHER AND/OR OBSTRUCTIONS TO VISIBILITY. WIND
SPEEDS ARE IN MILES-PER-HOUR.



USA.gov is the U.S. government's official web portal to all federal, state and local government web resources and services.